Wind_Speed
8 8 8 8 8 7 7 7 7 7 7 7 7 7 7 7 8 8 8 8 9 9 10 10 10 10 9 8 9 8 10 10 8 7 7 6 5 7 8 7 5 8 12 10 8 8 7 4 5 6 5 3 3 1 2 2 2 3 3 2 1 3 4 6 7 7 4 3 5 3 2 2 5 4 1 1 1 4 5 6 5 4 9 11 11 9 6 6
9 9 9 9 9 8 8 7 7 7 7 7 7 7 7 8 8 8 8 8 9 9 9 10 10 10 9 9 9 9 11 10 7 8 7 2 2 6 8 9 6 7 12 12 11 11 7 3 5 6 4 2 2 1 1 1 2 3 3 2 3 5 5 6 7 6 4 4 5 5 2 3 5 3 0 2 5 4 6 9 3 5 13 13 15 16 12 9
9 9 10 10 10 10 9 9 8 8 7 7 7 7 8 8 8 8 9 9 9 9 9 10 10 10 9 9 9 10 11 8 4 5 5 3 1 3 5 8 8 8 12 11 10 10 6 6 10 7 4 1 1 1 1 0 1 2 3 2 6 7 5 5 7 8 8 4 3 7 2 2 5 3 1 2 5 5 7 11 6 7 12 11 12 14 13 12
9 10 9 10 10 10 10 10 10 9 9 9 8 8 8 8 8 9 9 9 10 10 10 10 10 10 9 9 8 10 10 5 3 5 7 2 3 3 3 8 9 9 12 9 8 8 5 8 9 5 3 1 3 2 1 2 2 2 4 5 6 4 3 7 8 9 7 3 4 5 4 5 4 2 2 3 3 7 10 11 11 13 13 11 9 9 12 11
10 10 10 10 10 10 10 10 10 10 10 10 10 10 9 9 9 10 10 10 10 11 11 11 11 10 9 8 7 8 8 5 3 6 6 2 5 4 2 7 10 10 12 10 8 9 7 8 7 5 3 1 1 2 2 3 3 2 4 6 5 4 3 7 7 7 5 3 3 3 5 7 2 1 5 6 4 9 10 10 12 14 12 11 9 6 8 9
11 11 10 10 10 10 10 10 10 10 11 10 11 11 11 11 11 11 11 11 11 11 12 11 11 10 9 7 5 4 4 1 5 5 5 7 6 4 1 7 11 12 13 11 11 11 8 6 4 3 2 1 3 3 4 2 2 2 5 5 5 6 6 5 3 5 5 4 4 4 5 3 2 5 5 9 11 14 15 13 12 12 10 10 8 5 6 9
11 11 11 10 10 10 11 10 10 10 10 10 11 11 11 12 12 12 12 13 12 11 13 12 12 11 8 5 3 3 3 5 11 8 10 9 7 4 3 8 11 14 14 14 13 9 6 6 3 4 4 1 4 5 4 1 1 3 4 4 6 6 8 7 3 3 5 6 7 2 6 8 8 6 2 8 13 16 20 18 12 11 9 7 7 7 9 11
11 10 10 10 10 11 11 11 10 10 10 10 11 11 12 12 12 13 13 14 13 12 13 12 12 10 8 3 0 3 1 10 16 13 13 10 8 5 7 9 13 15 15 16 14 10 6 7 6 4 3 3 4 4 4 2 1 5 7 5 3 3 7 7 4 4 6 7 5 1 7 16 13 4 5 11 13 16 21 18 10 9 8 7 10 12 11 10
10 10 10 10 11 11 11 11 10 10 11 11 12 12 13 13 13 14 13 14 14 13 12 12 11 9 7 1 4 1 5 13 14 11 11 10 8 7 9 10 14 16 15 14 14 12 8 6 7 6 4 4 5 5 4 3 4 7 8 5 3 5 7 5 5 7 7 6 4 3 12 18 10 1 9 16 15 18 19 15 9 7 10 10 11 13 11 11
10 11 11 11 11 11 11 11 11 11 12 12 13 13 13 13 14 14 14 15 14 14 13 12 10 7 4 2 3 4 8 9 9 8 8 9 9 10 11 11 14 18 16 12 13 14 9 8 7 5 4 3 5 4 4 5 4 4 5 5 6 7 8 3 6 7 4 5 7 8 14 16 5 3 9 13 10 12 11 11 9 5 11 12 10 11 9 9
10 11 11 11 11 11 11 11 11 12 14 14 14 14 14 14 15 15 15 15 14 13 13 12 9 5 3 4 4 7 6 5 8 9 9 10 11 11 12 12 14 18 16 11 14 18 11 9 10 7 2 3 4 3 3 5 2 2 2 6 8 6 9 5 6 8 4 4 8 11 11 13 4 2 14 15 5 5 7 10 11 8 11 11 9 9 6 8
9 10 11 11 10 10 10 11 12 14 15 14 14 15 15 16 16 17 17 16 15 13 12 11 7 4 2 2 7 12 11 9 9 9 11 11 11 10 11 12 13 16 16 10 13 20 13 9 13 6 3 4 3 1 4 3 2 1 3 5 8 7 10 8 6 5 6 4 6 9 4 9 5 9 20 14 4 5 7 11 13 11 11 9 9 8 6 10
9 10 10 10 10 10 11 12 14 16 15 15 15 16 17 18 18 18 18 17 15 13 12 10 7 5 2 2 7 12 15 15 13 13 13 12 11 10 11 12 12 13 15 11 9 14 15 11 12 6 2 5 2 2 1 3 2 2 2 1 6 7 8 7 2 2 4 5 7 7 3 7 9 16 20 7 5 5 6 10 13 11 8 7 8 8 8 10
8 9 9 9 9 10 11 13 15 17 16 16 17 17 17 18 19 18 18 16 14 12 10 7 6 6 3 6 8 7 11 14 15 16 15 14 11 8 8 9 11 12 12 10 4 6 13 12 8 3 1 2 1 1 1 5 3 2 1 1 2 2 6 6 2 5 2 4 7 6 5 8 11 17 17 3 3 5 7 11 12 10 8 7 8 8 9 10
8 8 8 8 9 10 12 14 16 17 16 17 18 17 18 18 17 16 14 12 9 7 5 4 7 7 1 7 9 6 8 9 12 15 16 15 12 7 6 9 10 10 9 8 4 4 11 11 6 3 1 1 1 1 3 4 3 2 2 3 1 3 6 9 3 7 7 4 5 6 4 8 11 16 14 3 3 4 7 11 10 10 10 9 9 8 10 11
7 7 7 8 9 11 12 14 17 18 17 19 18 18 18 15 11 11 10 7 4 3 4 4 8 6 1 5 4 4 6 7 8 11 13 15 13 7 8 10 8 8 6 5 6 7 10 8 3 2 1 1 2 2 2 4 4 2 2 5 5 5 3 6 8 6 8 3 2 7 6 6 8 11 11 4 1 4 7 12 13 13 12 12 11 10 10 12
6 7 7 8 9 11 13 15 17 19 19 19 19 18 13 9 8 7 5 3 5 7 6 3 6 4 3 4 4 4 4 5 7 7 10 13 12 11 11 8 6 8 8 6 7 7 4 3 1 0 2 1 3 4 2 2 4 3 2 4 5 6 4 3 7 6 2 5 5 7 8 9 11 11 11 11 9 9 11 15 15 14 14 14 12 11 12 11
6 6 7 8 10 11 13 15 17 20 20 19 20 15 7 6 6 6 8 9 9 8 5 2 3 1 4 5 4 3 1 2 4 4 7 9 10 13 11 7 7 10 9 4 3 3 2 2 2 1 1 0 2 4 2 6 8 6 5 5 3 4 5 5 6 5 4 4 5 4 9 14 14 13 14 15 12 11 16 17 14 15 16 15 12 12 12 11
6 6 7 8 10 11 13 15 17 19 20 20 18 9 4 6 4 7 8 6 5 2 0 1 3 2 3 6 5 3 2 4 4 4 7 10 12 12 8 7 8 8 6 2 1 2 1 2 3 2 3 6 7 8 11 14 10 7 5 4 5 5 5 6 8 6 4 8 8 9 15 15 13 14 14 15 11 10 17 17 15 15 14 13 13 13 13 13
7 7 7 9 10 11 13 14 17 19 19 21 17 5 4 6 3 3 4 1 3 4 3 5 7 4 6 7 3 2 2 3 2 4 9 12 14 12 6 4 6 4 4 5 3 2 3 3 3 6 9 12 12 12 13 11 4 1 2 4 6 7 8 8 9 8 1 4 9 10 18 18 13 13 13 15 12 11 16 19 18 17 13 12 13 16 15 13
11 10 9 10 11 12 13 14 16 17 16 17 16 6 2 2 2 3 5 4 9 11 9 11 12 10 14 11 3 4 1 1 1 4 10 12 14 10 2 2 5 2 2 4 3 1 2 5 8 12 13 10 8 7 7 6 5 4 5 6 6 5 10 10 8 8 1 2 6 6 16 20 13 12 12 14 15 15 17 17 19 19 15 13 15 18 15 9
13 12 11 12 12 13 13 14 16 15 14 14 14 8 3 2 2 3 2 4 10 11 11 15 11 10 18 17 8 2 1 3 3 2 9 10 7 6 2 4 6 4 2 3 2 1 2 6 11 15 9 1 2 3 3 5 6 7 4 5 6 4 8 9 5 6 1 2 6 6 14 17 13 15 16 18 19 16 13 13 17 19 15 16 17 15 10 8
12 12 12 12 14 14 13 14 14 12 12 12 10 6 2 1 4 3 2 1 7 6 7 9 6 6 11 13 8 4 4 6 5 4 9 10 3 3 4 5 5 3 3 6 6 5 4 6 12 14 6 3 3 4 6 1 4 6 5 4 6 3 4 6 4 5 3 3 6 9 14 15 12 14 16 16 14 11 11 13 15 15 16 19 17 10 8 8
12 11 11 11 13 13 12 13 10 9 11 8 7 5 4 1 4 3 1 2 4 6 6 4 3 3 5 5 4 7 5 4 2 4 10 11 4 2 4 5 5 3 5 10 10 9 7 5 5 5 6 8 7 1 4 3 6 6 6 5 8 8 8 9 5 6 6 4 3 6 12 11 5 6 8 6 4 7 11 11 12 16 18 15 12 8 5 5
11 9 9 9 9 10 13 12 5 7 10 4 4 8 7 4 1 3 1 2 3 6 4 2 2 1 3 1 3 6 3 2 2 3 9 10 6 3 2 2 4 4 8 8 8 9 8 4 3 4 5 7 7 5 5 7 8 6 5 10 13 13 11 11 8 7 5 4 3 5 7 7 1 2 5 4 3 6 6 7 14 18 13 7 8 6 5 6
10 8 7 6 6 9 10 7 3 9 9 1 4 9 8 6 2 2 1 3 3 5 2 0 1 0 0 2 0 3 3 1 4 2 3 4 3 3 2 1 1 4 7 5 3 4 4 4 2 5 5 6 6 5 7 9 6 7 5 10 13 11 9 10 7 4 1 4 3 3 1 8 3 2 6 4 4 9 7 10 16 12 6 6 6 5 8 6
11 9 7 4 6 8 6 3 6 9 5 2 6 9 9 9 4 1 1 3 4 2 2 1 1 2 0 1 2 1 2 4 4 4 2 2 2 1 1 3 1 1 3 3 2 3 4 2 2 5 5 6 5 5 7 10 5 5 5 6 7 8 8 6 3 3 4 3 4 0 3 7 8 3 4 2 3 9 12 13 11 6 7 9 7 6 7 4
14 13 10 7 7 8 5 5 6 5 3 5 8 8 10 10 4 1 3 2 4 1 3 1 1 2 1 1 4 3 2 3 3 2 3 3 2 2 1 5 5 4 3 4 4 3 3 3 4 6 5 4 6 5 7 12 6 6 3 5 5 5 5 4 4 4 2 3 4 2 4 3 9 5 1 2 3 8 13 11 7 6 6 9 6 7 6 1
12 12 11 11 10 10 8 6 5 4 7 8 7 8 10 9 3 4 3 2 2 1 1 0 2 1 3 3 4 2 0 1 2 3 4 2 1 3 1 5 6 4 3 4 6 4 1 3 6 8 5 5 7 4 8 12 7 4 5 5 4 4 3 3 3 3 2 3 4 4 5 3 9 5 4 2 3 6 8 7 5 5 7 8 2 6 5 1
8 7 8 9 9 9 6 7 7 6 7 8 7 9 9 5 2 3 2 3 1 1 1 1 0 2 3 4 3 2 0 1 1 2 3 1 2 4 1 3 5 3 2 2 5 5 1 1 2 5 4 6 5 3 3 7 5 3 5 4 5 4 4 3 1 3 1 6 5 9 10 5 6 5 3 3 4 5 4 3 4 4 6 7 3 6 4 3
5 5 5 6 8 7 4 4 5 3 3 4 5 6 5 3 3 3 6 2 1 2 1 2 2 2 4 3 2 3 1 1 2 2 2 1 2 4 2 0 3 3 3 4 5 4 1 1 2 3 2 4 6 4 3 2 3 3 3 3 3 3 4 4 4 3 1 6 4 8 10 8 7 5 2 4 5 5 4 2 4 5 7 7 4 8 4 4
5 5 5 6 8 9 7 4 1 2 1 2 3 3 2 2 1 5 4 3 2 2 2 1 2 2 3 2 1 2 0 1 1 3 2 2 1 0 2 3 2 2 4 2 3 4 2 4 4 3 1 4 5 3 3 3 4 4 3 2 2 4 3 2 2 1 3 6 4 3 3 5 8 5 3 8 9 8 8 6 6 6 9 8 4 8 3 4
5 5 5 6 8 10 10 8 5 3 3 2 1 3 3 2 4 3 1 2 2 1 2 1 1 1 2 1 2 2 0 1 2 2 3 3 1 3 5 5 4 1 3 2 2 4 4 4 1 0 2 3 7 5 2 1 3 5 4 4 3 1 2 3 3 2 4 5 4 1 2 4 6 3 7 14 13 7 4 6 7 5 7 8 4 5 2 4
7 6 5 6 7 9 10 10 9 6 5 6 4 3 1 6 4 3 3 5 3 3 1 2 1 2 1 2 4 3 1 3 3 3 2 3 2 2 4 4 5 3 2 1 2 1 3 6 2 4 2 4 9 8 4 4 5 6 5 5 4 4 4 4 4 4 6 4 3 1 3 3 2 3 7 10 7 6 3 4 5 4 5 3 5 5 5 7
8 7 7 7 8 9 10 10 8 7 9 7 3 1 6 7 2 1 4 5 2 3 3 1 1 3 2 3 3 3 3 4 2 4 2 3 3 4 3 4 6 5 2 1 1 1 2 7 5 2 1 6 7 4 3 6 1 3 3 3 3 4 5 4 4 4 2 2 3 2 4 4 4 6 9 5 4 6 6 7 5 5 5 7 8 8 9 10
8 8 9 9 10 10 11 11 10 11 11 5 1 5 7 5 3 3 3 2 2 3 2 4 1 2 4 2 2 2 1 1 1 1 2 2 3 5 5 4 6 9 7 4 2 2 2 6 3 2 2 5 5 2 3 3 2 1 3 2 3 2 5 3 5 1 2 4 6 3 5 7 4 7 6 1 3 5 7 8 6 6 7 10 9 9 10 10
7 8 8 9 12 13 12 12 14 15 10 3 4 7 4 3 5 5 3 2 2 3 2 3 3 3 3 3 2 1 1 1 1 1 2 2 3 4 4 4 4 11 11 6 3 4 4 7 5 4 4 6 3 2 1 0 3 5 3 4 1 1 3 2 2 1 0 7 5 3 9 10 6 5 3 6 7 7 8 9 9 10 10 10 9 10 10 10
4 4 7 10 15 16 14 15 19 15 6 3 9 11 5 4 4 4 4 3 1 2 3 4 4 2 3 4 3 2 3 2 1 2 2 3 4 4 5 4 4 7 7 4 2 3 4 6 6 4 5 3 2 2 0 2 2 4 3 1 2 2 2 1 2 2 4 6 3 4 9 8 5 6 5 5 3 5 8 9 11 12 12 10 10 11 11 10
2 0 3 6 10 14 17 20 20 10 3 5 10 10 5 5 5 4 5 3 1 1 3 5 4 2 3 3 3 2 3 3 2 2 3 3 5 4 4 4 3 2 2 4 4 2 2 4 6 1 3 0 2 1 3 3 2 1 1 1 1 2 2 1 2 1 2 5 4 4 5 5 6 4 0 1 2 5 6 8 11 11 11 10 9 9 9 8
1 1 2 2 3 11 19 21 14 6 4 6 8 6 2 2 3 2 3 3 2 1 3 4 4 4 5 4 4 4 2 4 4 3 3 3 4 4 3 3 4 3 0 2 4 2 2 4 6 2 1 0 0 3 6 6 4 3 2 2 1 1 0 1 2 1 2 4 4 4 5 6 5 1 6 5 8 9 7 9 10 9 10 9 9 9 7 7
2 1 2 3 3 15 20 14 7 4 5 6 7 7 4 3 3 2 1 3 3 2 1 3 4 4 5 5 4 3 2 3 4 4 4 4 5 5 2 0 4 4 2 1 3 3 1 3 4 3 3 3 5 5 6 6 4 3 4 4 4 4 3 4 5 3 3 3 4 5 7 6 5 3 3 8 11 10 9 10 9 8 9 8 8 8 7 7
2 2 1 3 9 21 15 5 4 3 4 5 4 4 3 2 3 3 2 2 2 2 1 1 4 4 4 5 6 4 3 4 5 5 5 5 7 5 4 6 2 3 3 1 3 3 2 1 1 4 6 7 8 3 2 2 1 1 3 4 5 6 6 7 8 3 3 4 4 6 7 5 5 5 7 10 9 8 9 10 8 7 7 7 7 7 7 8
2 2 2 1 13 20 9 3 5 3 3 3 1 2 2 2 2 3 2 1 2 2 1 1 3 5 5 6 6 5 5 5 6 8 6 4 4 3 6 8 4 2 2 1 3 1 2 2 1 4 4 6 8 2 5 3 2 1 4 4 5 5 5 7 5 2 3 5 5 7 6 2 2 2 9 10 8 9 9 9 9 7 6 7 7 7 7 7
0 2 2 2 6 7 5 5 5 5 5 4 4 6 5 3 4 5 4 2 3 2 1 2 3 3 3 3 2 3 4 3 5 7 5 3 2 1 7 9 5 3 2 2 3 2 1 1 2 1 3 4 6 3 3 4 2 1 3 3 2 3 5 5 2 2 4 6 8 9 5 2 2 2 8 9 9 9 7 7 7 6 6 7 7 7 7 7
1 1 3 4 4 2 2 3 1 4 6 7 8 9 8 6 5 7 7 5 5 4 3 3 2 2 2 2 1 2 3 4 3 4 1 1 3 1 5 8 6 3 1 2 2 1 1 2 1 2 5 6 7 6 1 1 1 2 2 4 4 3 6 7 4 4 5 6 8 9 6 5 5 3 7 6 7 9 6 5 5 4 4 5 5 7 7 7
1 0 2 3 4 2 1 0 1 2 4 5 6 7 10 9 4 3 6 5 4 4 4 4 1 2 1 3 3 5 5 6 5 4 3 3 2 1 1 3 5 2 1 2 5 2 0 2 2 4 8 7 7 5 1 2 1 3 3 5 6 4 5 5 4 5 5 5 7 9 9 10 9 6 7 7 5 5 5 4 4 3 2 2 3 4 5 6
1 1 1 0 2 1 2 1 1 2 2 0 1 2 5 6 2 1 2 1 2 1 2 3 1 2 4 4 3 5 6 5 6 6 5 4 2 2 1 3 4 5 2 2 4 2 1 3 4 6 8 5 4 4 3 2 2 2 4 6 7 8 7 7 9 7 7 8 7 5 7 11 11 8 4 4 5 5 4 3 2 1 1 1 2 2 3 4
1 0 1 0 1 1 3 1 1 2 3 1 1 2 4 3 2 2 1 1 1 2 1 2 1 2 4 3 1 2 3 4 4 2 2 2 2 3 3 2 2 4 4 2 3 2 2 3 4 5 6 4 5 7 6 5 4 4 5 7 9 11 11 12 13 12 9 9 9 9 13 17 14 7 1 1 2 3 2 1 1 2 2 2 3 2 2 3
1 0 2 2 1 0 1 1 3 2 3 2 1 4 5 5 6 5 1 2 4 2 1 4 2 3 4 3 1 3 4 5 6 3 0 0 1 1 2 2 1 3 6 4 3 0 2 2 1 1 3 5 7 9 8 7 9 9 9 9 10 14 16 16 16 15 15 16 16 16 20 19 9 1 3 1 1 3 3 3 2 3 3 3 3 2 2 3
1 0 1 2 2 0 1 1 1 2 2 2 3 5 4 6 8 4 1 3 5 3 2 3 3 4 3 2 1 3 4 2 4 4 1 1 1 0 1 2 1 4 5 2 3 3 2 3 3 3 5 8 9 10 11 9 9 10 11 12 14 17 18 17 16 16 16 17 16 16 18 12 1 3 2 1 1 3 3 4 4 4 4 4 4 3 3 4
2 1 2 2 1 1 1 1 0 0 2 2 3 3 3 4 4 1 1 1 2 1 2 2 2 3 1 1 2 1 1 2 1 2 1 0 2 0 1 1 1 4 4 1 1 3 2 2 4 5 5 7 9 12 12 9 9 10 12 15 19 19 16 15 14 12 11 11 11 11 10 4 2 2 2 2 2 3 4 4 5 5 5 5 5 5 5 5
3 2 2 4 1 1 2 1 1 2 2 2 2 1 1 0 2 1 1 2 4 4 5 4 2 3 1 4 3 3 4 2 3 4 3 4 5 4 4 5 4 4 2 1 1 2 2 2 3 4 6 9 10 9 5 5 8 11 11 13 16 16 13 12 10 8 7 5 6 7 4 1 2 2 2 2 3 3 4 5 5 5 5 5 6 7 6 6
Wind_Direction
5 7 5 7 6 7 8 7 8 4 5 2 2 2 360 360 356 356 355 355 355 353 355 355 1 6 5 4 356 343 330 314 298 274 251 262 255 238 246 247 219 203 204 196 181 163 133 118 141 132 125 93 16 342 16 11 87 64 86 119 227 200 201 189 189 199 189 254 265 271 160 165 290 287 272 332 297 281 285 270 254 267 255 241 252 263 269 258
358 359 357 356 353 355 353 353 355 350 350 347 348 347 346 347 343 344 343 344 344 342 346 345 350 355 359 1 355 348 333 317 298 268 250 226 209 239 244 236 223 200 194 193 193 174 145 160 161 118 88 82 354 357 15 338 97 91 120 154 228 203 211 198 186 194 201 228 254 273 211 198 257 259 62 258 277 314 296 276 240 255 263 259 257 254 252 235
352 353 352 349 345 346 343 343 343 339 338 336 335 334 333 332 330 331 330 331 331 331 334 334 337 342 351 353 354 350 333 322 303 248 201 111 80 277 251 224 214 196 194 199 200 188 169 172 158 119 66 96 327 25 56 179 165 157 137 193 239 215 224 232 206 206 221 228 276 285 270 224 243 218 153 223 276 297 263 264 253 247 257 258 252 243 238 224
347 347 349 346 341 339 337 338 337 335 333 330 329 326 323 321 320 318 319 319 319 320 320 322 324 328 338 343 353 347 337 339 290 193 161 102 17 350 276 215 201 192 196 194 186 191 170 142 138 95 80 125 327 9 157 221 198 172 156 203 233 194 219 240 219 217 230 224 244 280 322 291 260 179 191 173 282 283 251 249 243 246 252 254 255 235 223 215
345 344 346 342 338 335 334 334 334 334 331 329 327 323 321 318 316 313 312 310 312 312 309 311 311 315 324 331 347 345 358 13 273 187 171 323 346 342 305 197 190 187 189 182 162 159 146 133 112 58 80 144 336 37 233 222 136 172 212 229 221 155 228 245 217 219 211 172 223 270 299 282 285 180 198 171 216 256 257 251 233 239 245 247 255 230 209 212
344 346 346 342 339 336 335 335 336 335 329 328 325 324 323 319 317 313 309 308 310 309 304 305 303 306 311 319 332 342 34 342 256 213 242 301 318 317 215 184 183 182 186 174 150 142 131 114 103 101 95 79 189 194 243 229 129 229 251 259 239 193 228 250 195 201 171 155 209 223 279 290 321 280 211 176 217 245 258 260 246 247 243 241 250 210 199 215
344 347 347 344 342 340 340 338 337 334 330 330 327 328 324 320 318 312 311 308 308 309 305 305 305 302 303 313 316 351 94 240 262 258 274 286 286 279 190 184 180 183 184 167 150 142 123 115 152 156 110 34 208 210 231 195 103 248 256 259 250 215 226 244 215 194 183 213 232 231 318 289 261 275 227 191 220 245 259 260 255 261 256 243 244 225 221 223
343 343 342 342 341 341 342 338 337 335 333 333 330 329 324 321 317 312 311 307 307 309 306 307 309 308 306 300 243 359 99 252 270 272 274 271 261 241 191 182 181 185 185 180 170 156 140 146 176 155 137 227 194 184 189 148 124 220 233 240 244 228 236 254 258 242 242 244 241 286 286 270 258 253 272 246 229 240 255 261 260 265 268 249 245 244 240 234
341 340 340 340 339 340 341 337 337 334 334 333 330 328 322 319 315 312 309 304 306 306 307 309 309 310 302 279 111 343 259 260 273 272 265 257 247 220 194 186 185 187 184 193 185 166 162 174 194 185 186 201 175 180 174 180 234 216 218 244 260 269 266 272 266 241 244 245 174 185 259 266 272 248 263 253 232 237 251 267 270 262 264 251 246 248 241 240
338 339 340 337 337 339 339 337 337 336 335 333 328 324 319 317 312 307 304 302 303 302 305 307 309 311 281 151 110 263 259 260 261 251 249 243 235 210 199 197 193 193 185 187 184 174 180 193 184 161 157 150 173 184 158 178 210 192 198 266 259 270 281 258 258 248 240 256 181 192 253 265 295 56 261 249 222 234 248 269 271 249 256 251 246 248 240 238
337 338 337 338 340 339 341 342 341 341 338 334 330 324 318 314 308 302 298 295 294 294 297 297 303 301 246 153 173 249 256 248 243 241 240 236 234 218 211 211 202 199 187 177 193 193 195 185 147 111 151 176 167 171 214 201 157 123 147 295 277 293 294 230 243 259 224 260 197 188 252 276 317 119 248 253 209 208 236 267 271 250 254 256 252 252 241 237
336 333 333 340 342 341 346 349 349 348 342 339 334 327 321 314 307 300 294 289 287 286 285 286 287 265 222 167 223 247 255 249 246 246 241 235 230 221 217 217 212 209 198 188 207 207 204 176 146 137 219 161 136 175 241 217 97 78 78 310 294 336 306 245 234 244 182 218 184 161 256 285 258 227 250 256 165 187 238 264 269 258 256 263 262 256 244 243
336 333 334 342 347 352 356 355 355 352 348 345 337 330 322 314 307 300 295 289 284 279 274 274 265 225 195 257 245 250 255 252 250 248 244 237 229 221 215 212 210 214 213 209 218 211 206 191 163 171 187 136 181 205 142 57 66 282 71 311 300 341 307 262 205 119 157 198 170 152 252 268 248 248 257 261 142 193 239 255 263 266 263 263 264 261 253 247
336 338 341 347 356 1 0 0 359 355 352 347 338 332 324 316 308 302 299 294 285 275 267 254 225 184 169 257 262 266 259 251 246 243 242 235 221 211 207 204 200 205 216 218 231 214 203 194 156 138 137 138 250 262 29 13 20 294 299 256 322 303 283 292 130 129 198 214 159 162 247 254 259 262 264 297 128 207 242 258 263 270 268 260 259 260 262 256
339 345 349 355 1 2 2 3 0 357 354 348 341 335 326 319 312 310 309 299 290 262 233 192 177 156 102 273 267 271 255 247 244 241 242 232 212 194 188 187 189 192 200 205 205 187 180 169 135 132 256 299 48 342 324 345 12 16 286 278 285 210 268 305 277 179 223 262 139 172 234 253 259 266 271 330 81 200 242 263 267 270 272 268 262 257 264 267
345 351 353 357 358 1 2 2 0 358 355 352 346 336 329 326 323 322 319 310 299 195 165 163 172 157 340 278 269 267 241 234 241 241 234 223 212 192 162 159 163 163 163 163 147 139 142 133 112 144 159 298 144 125 15 357 331 329 227 247 250 234 269 318 296 231 210 208 179 213 231 258 257 266 279 302 291 238 253 268 271 273 273 268 266 264 263 269
348 350 350 352 353 357 359 359 0 357 357 357 347 337 335 341 343 342 352 59 99 123 120 147 169 157 277 257 267 273 241 221 229 230 217 211 206 184 154 134 127 130 120 109 124 121 103 97 59 23 61 39 128 109 30 309 273 274 227 236 243 246 256 300 295 294 192 172 208 236 239 248 259 275 290 292 288 285 275 272 273 273 274 270 268 267 263 264
338 340 342 344 347 351 354 356 359 356 358 360 348 340 355 6 11 54 79 97 102 104 89 77 133 130 272 252 260 270 80 165 188 185 191 185 180 178 159 130 127 122 101 72 111 114 12 35 79 40 6 312 142 124 189 235 235 234 234 249 272 259 247 250 262 300 332 239 218 252 255 251 262 274 281 281 283 285 278 276 274 271 272 274 275 270 266 260
318 325 330 334 338 343 348 353 357 356 358 1 354 349 40 19 38 85 77 86 99 102 309 219 166 154 264 265 276 282 84 123 145 154 161 156 161 162 139 117 115 112 110 97 238 174 126 58 75 128 215 220 206 183 205 228 234 230 224 242 273 276 248 231 245 263 304 284 267 265 266 262 264 267 273 276 274 272 277 282 278 271 271 274 276 272 267 262
307 313 317 326 331 334 342 349 355 358 358 3 4 12 52 17 21 36 360 353 208 234 260 230 210 228 276 280 273 209 177 153 161 162 157 156 152 138 104 88 84 79 141 159 191 189 132 152 171 200 214 216 217 209 218 241 279 278 235 254 259 268 267 251 260 265 178 281 269 256 270 275 270 267 269 275 275 268 270 274 274 274 277 276 273 270 269 267
315 317 320 328 327 329 338 343 351 357 1 9 20 43 103 69 39 320 312 297 258 246 250 242 227 238 259 261 218 164 172 227 231 149 160 162 149 142 133 111 119 159 205 151 151 66 119 185 211 221 219 215 223 222 229 260 298 273 250 271 265 249 268 265 265 273 206 249 262 248 273 277 273 270 266 268 269 259 256 263 272 276 278 277 272 270 275 283
314 319 326 329 327 328 334 339 345 352 1 18 40 73 138 175 204 246 249 302 278 249 240 247 243 247 252 255 249 177 41 281 277 180 165 158 150 178 187 118 152 193 169 125 125 90 195 218 229 232 222 161 20 72 143 220 245 251 247 278 276 252 277 277 262 286 334 225 275 286 279 277 273 263 253 250 253 256 258 256 263 271 274 272 268 273 291 308
306 318 328 330 330 331 335 337 336 347 4 24 52 83 102 243 214 210 147 267 289 267 237 241 241 244 252 265 258 195 225 246 263 255 178 154 141 200 149 137 167 153 145 184 195 192 212 239 236 234 215 196 281 64 98 213 250 231 221 255 272 262 277 275 271 322 335 238 277 296 287 282 270 255 249 248 252 262 266 254 255 264 261 259 266 284 303 306
293 308 318 320 328 337 344 339 329 347 5 30 56 42 25 3 203 181 133 244 287 283 251 219 199 216 239 272 227 182 215 229 233 246 182 155 136 168 162 158 146 142 197 206 211 217 229 241 227 213 185 199 235 163 119 255 265 228 206 222 258 259 250 255 283 339 321 279 304 314 297 288 257 244 262 277 279 259 256 260 263 259 253 258 278 293 312 331
278 286 294 302 319 335 340 337 330 352 355 33 48 8 22 29 205 179 342 334 300 292 283 197 151 210 219 184 156 175 187 213 242 238 181 166 155 146 184 166 138 198 211 203 221 243 250 238 131 130 170 184 204 226 200 215 252 263 213 211 237 253 256 262 292 346 341 307 344 3 320 299 56 103 274 301 314 264 251 255 251 250 258 283 291 304 27 32
264 268 277 289 311 329 333 333 337 345 346 31 7 357 10 6 330 197 52 23 301 284 317 189 177 51 184 61 59 177 141 282 303 350 160 183 174 129 147 204 112 213 200 180 214 246 248 242 164 146 153 143 165 236 223 197 239 288 238 210 225 243 255 264 285 331 291 258 302 43 343 286 301 143 245 263 272 273 263 242 246 256 308 320 297 349 36 35
256 261 268 278 300 313 319 303 318 335 341 321 341 350 353 347 330 267 22 13 303 254 104 312 321 65 179 343 359 127 181 285 340 29 45 6 323 75 148 217 189 230 180 140 277 246 200 220 86 120 123 126 162 237 217 174 187 269 238 192 199 221 237 236 230 228 238 281 307 100 154 276 286 239 249 250 217 264 263 252 265 315 334 306 313 37 56 47
257 259 260 262 274 286 285 276 298 319 302 310 330 334 339 336 317 24 49 341 298 104 91 299 147 88 331 36 49 89 221 294 37 338 332 20 333 36 336 230 187 207 190 148 242 257 147 173 172 144 121 152 196 218 179 158 181 249 205 144 159 193 211 174 169 209 254 343 305 246 149 253 280 264 15 29 205 250 259 260 292 324 303 292 321 60 78 64
260 259 257 253 255 267 278 269 262 280 289 302 320 318 325 323 320 64 82 246 299 70 84 33 123 348 346 40 32 55 245 349 92 285 325 44 7 62 176 222 161 193 232 178 233 262 94 210 185 149 143 201 211 207 170 165 193 222 137 101 80 81 80 99 139 146 69 308 257 209 174 233 282 274 96 63 256 251 262 271 286 288 277 275 315 79 92 300
264 261 256 247 245 253 260 255 255 274 289 292 305 310 314 321 39 81 218 235 359 317 241 70 67 319 20 61 352 331 197 319 21 352 2 58 347 32 121 193 110 131 272 305 268 261 301 309 172 160 183 195 170 117 155 166 165 139 113 65 36 39 44 52 52 90 57 284 230 188 189 194 281 286 140 177 234 224 245 291 307 316 301 291 1 78 83 10
274 265 250 236 238 238 222 247 261 253 275 301 317 313 318 0 80 176 234 239 23 294 17 36 330 4 52 78 323 322 90 323 5 49 31 24 7 24 36 201 85 68 345 321 291 285 3 112 233 236 195 131 116 78 20 61 108 105 87 56 8 339 16 25 357 48 180 266 236 192 192 191 235 263 234 243 247 224 223 273 313 326 308 297 41 76 57 10
282 273 252 230 230 227 220 238 248 160 226 323 339 335 27 29 239 209 240 350 344 293 67 11 301 62 80 76 287 288 135 194 72 100 112 77 54 230 221 204 169 356 325 271 283 317 268 217 241 276 200 142 130 103 11 26 72 84 91 92 327 318 348 344 321 70 220 260 265 206 189 221 242 250 253 263 266 245 217 215 251 283 289 293 39 75 30 332
276 279 263 240 232 227 229 236 234 219 213 166 71 42 81 225 244 181 187 279 251 292 86 127 303 145 139 352 270 243 278 212 165 130 151 123 58 276 249 210 173 236 277 237 311 325 298 286 285 179 267 183 153 163 220 205 145 148 154 156 170 221 283 272 253 265 267 275 295 252 197 262 281 276 231 244 264 267 215 220 250 266 275 293 11 61 356 334
275 271 260 248 237 233 235 235 234 220 173 139 106 60 187 240 247 115 183 236 251 315 325 138 353 340 157 259 247 195 222 256 159 133 158 118 82 283 267 233 186 181 241 273 314 276 280 301 231 182 248 179 176 197 180 129 156 182 162 142 166 185 215 244 237 258 270 285 314 273 202 220 257 277 235 233 275 318 324 285 277 265 266 313 29 35 19 22
286 275 268 259 241 234 231 227 227 200 162 132 95 180 226 241 252 152 209 227 255 292 298 293 349 327 297 265 257 221 233 260 124 114 168 169 179 203 219 224 190 162 137 182 275 174 249 275 248 243 297 162 183 232 124 104 174 214 125 119 209 194 193 246 251 230 240 293 284 224 230 232 209 265 272 259 308 331 324 308 297 295 332 33 45 34 26 26
298 293 282 260 243 234 223 217 208 182 161 127 125 221 232 237 210 198 202 187 181 182 313 314 244 248 277 266 287 319 304 241 148 120 223 211 219 215 213 225 184 167 164 167 215 203 236 268 249 30 324 193 194 247 134 140 210 162 117 186 239 165 154 237 269 270 88 258 254 215 249 276 287 285 283 74 40 352 340 341 345 346 20 46 47 39 31 25
302 288 273 252 242 233 219 210 193 177 162 128 226 231 241 233 213 211 192 147 164 147 122 289 239 200 258 273 289 318 74 244 202 171 226 238 249 211 206 256 192 181 189 180 213 213 208 260 240 171 234 236 189 142 114 156 150 137 182 229 265 108 139 168 252 351 238 249 261 252 256 275 296 288 320 34 29 10 356 4 20 23 36 44 39 42 39 32
335 280 265 256 244 231 217 200 183 174 155 169 229 236 226 218 226 211 180 153 196 180 180 240 236 206 230 242 257 205 167 209 178 164 214 232 240 185 172 243 200 182 202 171 186 231 194 255 265 184 205 239 107 118 311 293 184 149 193 219 84 208 219 146 189 213 239 245 253 251 257 264 246 247 295 326 2 38 13 16 32 31 34 34 30 36 34 30
24 151 279 267 240 224 207 187 174 170 173 198 223 234 218 219 228 197 185 176 118 162 204 234 234 250 246 220 245 248 190 190 179 206 223 220 240 198 166 228 204 163 232 161 182 246 160 241 275 187 171 159 64 153 195 237 261 99 130 329 75 180 200 153 183 190 248 253 252 247 254 257 247 243 167 194 102 65 26 34 46 35 33 33 28 29 24 25
101 147 266 302 220 203 189 176 170 181 210 210 225 227 205 232 238 209 199 205 219 213 224 232 213 233 261 260 263 262 216 196 200 224 230 224 261 253 208 215 181 158 319 158 195 225 121 232 251 234 231 357 146 201 186 185 185 136 161 226 213 172 70 275 231 176 209 247 253 250 248 251 262 153 119 98 46 34 33 63 67 42 33 30 23 23 17 21
98 119 259 334 179 178 172 170 183 202 206 224 240 237 246 270 266 293 267 191 214 253 233 210 211 233 268 279 266 237 209 225 214 216 231 235 246 252 268 224 158 152 76 80 205 214 181 230 239 238 245 241 236 220 192 191 187 177 199 203 210 224 253 272 252 191 186 227 227 246 256 249 262 292 78 68 52 42 39 58 68 48 37 30 22 20 14 16
125 168 282 346 177 174 168 178 205 193 211 225 231 233 254 282 261 259 263 174 194 250 297 212 226 236 245 256 255 239 237 241 221 221 240 237 227 238 328 3 65 133 114 168 236 216 153 125 261 249 240 250 260 249 135 207 197 221 242 214 213 219 213 239 251 225 208 223 214 246 259 242 257 304 35 58 60 57 48 50 56 47 38 32 24 18 15 17
165 222 329 4 178 177 175 212 203 199 237 247 290 264 246 274 266 248 246 196 203 234 261 224 235 236 233 249 256 245 244 232 219 231 242 247 243 270 348 352 351 19 47 288 288 328 121 134 219 241 251 277 280 316 50 34 87 136 254 218 205 218 217 230 247 276 256 231 226 249 251 234 281 22 79 81 66 56 52 48 45 37 29 26 21 18 15 12
81 284 299 276 203 190 194 210 204 209 225 248 271 261 259 261 250 251 250 214 195 205 245 257 251 235 234 265 253 231 250 243 238 249 242 237 260 20 24 12 14 24 21 323 299 327 357 190 160 234 283 294 289 293 11 17 49 205 255 245 237 272 284 281 282 295 260 223 229 250 249 211 242 71 84 92 88 75 60 52 53 42 24 16 12 13 11 8
39 302 274 285 303 322 209 202 200 213 218 230 241 247 254 253 241 240 236 228 212 193 209 262 240 173 195 255 218 222 237 218 245 292 295 242 273 3 28 24 43 78 105 17 350 324 302 289 185 272 269 262 272 274 276 49 293 266 301 319 321 294 279 286 277 254 246 215 221 249 267 260 253 7 30 44 85 91 83 69 66 60 34 16 8 7 4 6
87 108 301 308 335 9 188 106 44 236 226 223 229 234 235 239 253 228 214 233 246 209 212 261 263 116 196 226 230 258 248 210 207 242 251 248 267 311 9 56 56 40 229 15 18 48 254 283 237 245 259 260 274 288 7 61 267 269 312 325 324 311 286 283 264 248 271 273 250 251 268 276 279 311 345 352 17 60 82 74 53 52 43 15 8 3 358 359
105 171 174 295 340 326 239 293 345 270 285 270 235 254 240 238 275 310 211 226 290 246 234 251 215 210 241 234 234 258 256 227 214 226 248 258 265 306 316 112 61 8 344 337 2 62 146 266 246 249 262 270 297 307 328 352 282 271 305 306 305 303 292 277 265 273 307 303 276 276 292 291 290 294 317 352 352 3 38 53 41 12 331 312 306 327 348 348
90 158 204 192 341 231 222 266 349 293 282 294 283 279 272 255 238 264 302 340 319 7 355 259 193 232 270 292 304 268 292 301 281 247 251 293 316 334 352 76 77 27 38 357 343 77 149 259 257 266 286 313 321 306 302 305 293 281 278 277 284 285 277 270 269 277 289 278 273 292 291 284 285 281 238 60 345 317 328 328 217 241 261 249 253 284 324 324
68 36 317 11 55 228 282 16 32 348 283 255 241 247 253 258 255 253 327 332 306 334 283 261 294 31 352 345 318 266 291 299 290 284 158 307 294 293 320 303 265 42 49 24 332 10 185 261 284 293 304 306 297 290 292 297 294 287 280 272 270 268 265 266 269 268 265 261 265 274 273 274 284 189 160 124 325 276 284 288 258 253 262 255 255 275 291 286
49 57 334 41 62 93 359 6 33 359 295 236 238 252 250 257 266 274 331 274 269 268 251 265 328 18 9 22 47 271 279 281 272 281 4 74 309 54 292 262 278 0 16 27 322 307 265 296 342 1 313 295 290 287 288 294 292 286 284 275 265 263 262 264 265 262 260 262 264 265 265 269 295 113 193 255 262 266 277 280 268 254 257 273 281 288 286 271
78 64 111 85 19 194 118 45 72 165 255 223 217 255 264 253 262 306 27 289 280 276 115 105 14 4 8 11 21 241 189 89 145 261 13 233 258 339 322 274 13 348 342 12 324 320 307 306 332 335 300 282 286 289 294 309 305 284 275 268 262 260 257 255 257 259 261 265 268 268 267 265 132 143 256 252 236 269 281 273 268 250 237 252 270 280 288 280
114 47 96 106 27 260 147 118 111 170 224 233 215 259 261 222 24 27 206 66 69 90 103 103 33 11 350 290 292 163 164 171 204 221 219 222 239 242 236 247 255 258 259 270 292 270 244 265 292 290 281 280 284 292 323 348 305 277 263 255 256 259 261 260 260 260 257 249 257 265 261 190 174 196 235 261 255 275 281 276 281 275 256 250 260 272 284 286
Height
833 833 832 832 831 831 830 830 830 829 829 828 828 828 827 826 826 825 825 824 824 823 823 822 822 821 821 820 819 819 818 817 816 817 815 812 811 811 812 812 813 813 814 815 816 817 818 819 820 821 821 822 827 827 827 828 830 831 836 844 844 846 844 835 834 833 827 821 817 817 820 821 817 817 816 815 815 813 811 807 805 804 800 796 795 795 795 795
833 832 832 831 831 831 830 830 829 829 828 827 827 827 826 826 825 825 824 823 823 822 822 821 821 821 820 820 819 818 817 815 815 815 812 810 810 810 810 811 812 812 813 814 814 815 817 819 819 820 821 824 828 828 828 829 829 832 841 845 840 836 832 826 823 823 823 819 815 816 820 822 817 815 816 814 813 813 811 804 803 803 797 794 794 793 794 794
832 832 831 831 830 830 829 829 829 828 828 827 827 826 826 825 824 824 823 823 822 821 821 820 820 819 820 819 818 818 816 815 815 812 809 809 810 809 809 810 811 812 812 813 814 815 816 817 818 820 823 825 829 829 828 829 830 833 839 841 832 825 825 825 822 820 819 817 816 816 819 820 816 815 815 814 814 813 810 802 800 800 794 791 791 791 792 793
832 831 831 830 829 829 828 828 828 827 827 826 826 825 825 824 824 823 822 822 821 821 820 820 819 818 819 818 818 818 814 815 813 809 808 809 809 809 808 809 810 811 812 813 814 815 815 816 818 820 823 826 831 831 829 828 829 833 835 830 824 825 825 820 818 818 819 821 820 817 819 817 814 816 814 813 816 812 804 797 795 794 789 788 788 789 790 791
831 830 830 829 829 828 827 827 827 826 826 825 825 824 824 823 823 822 822 821 820 820 819 819 818 818 818 817 819 816 816 821 813 806 808 808 808 808 808 808 809 810 811 812 813 815 815 817 818 822 824 827 831 830 828 828 829 831 829 821 821 827 823 813 815 818 820 822 821 820 818 813 813 815 811 812 815 806 794 790 790 787 785 786 786 787 788 789
830 830 829 829 828 828 827 826 826 826 825 824 824 823 823 822 822 821 821 820 820 819 818 818 817 818 817 817 818 815 820 824 811 805 808 807 807 807 807 807 808 809 811 811 813 814 815 817 819 822 825 827 829 827 826 829 829 828 824 821 820 823 820 813 814 816 819 820 818 817 815 813 814 811 807 809 807 796 786 784 784 782 783 784 784 785 785 786
829 829 829 828 828 827 826 826 825 825 824 824 823 822 822 821 821 820 819 819 819 818 818 817 817 817 816 816 817 816 821 817 805 805 807 805 807 806 806 807 808 808 810 811 812 813 815 818 819 823 825 826 827 826 826 828 830 828 824 821 818 820 819 814 814 817 818 817 814 816 815 811 809 809 807 804 798 790 782 779 780 781 782 783 783 782 781 781
829 828 828 827 827 826 826 825 824 824 823 823 822 822 821 820 820 819 818 818 817 818 817 816 816 816 816 816 816 818 820 810 803 805 804 804 805 805 806 806 807 808 809 809 810 812 814 816 818 822 823 823 824 824 826 827 828 829 823 818 818 818 815 813 816 817 817 815 815 818 814 803 802 807 803 795 792 787 778 774 778 780 780 782 780 778 778 778
828 828 827 826 826 825 825 824 823 823 822 822 821 820 820 819 818 817 817 816 816 816 815 815 815 814 815 815 816 820 814 803 802 803 802 803 803 804 805 805 806 807 808 809 809 811 813 815 816 817 818 820 823 822 824 825 824 821 818 817 817 815 812 813 814 814 814 813 814 816 809 799 798 804 796 783 783 779 775 774 776 779 777 776 775 774 775 775
828 827 826 826 825 824 824 823 823 822 821 821 820 819 818 817 817 816 815 815 815 814 814 814 814 814 815 813 818 818 805 799 802 801 801 802 802 803 803 804 804 805 806 808 809 809 810 811 812 814 816 820 822 822 824 823 819 817 818 817 816 815 814 814 811 810 813 810 810 811 805 797 799 806 792 773 773 775 775 775 774 776 773 770 771 771 772 773
827 826 826 825 825 824 823 823 822 821 821 820 819 818 817 816 815 814 814 813 813 813 813 813 812 813 813 813 816 811 799 799 801 799 801 801 800 801 801 803 803 803 805 806 807 807 808 809 811 814 816 819 821 824 824 819 818 818 820 816 814 815 812 812 811 809 811 808 806 808 805 800 802 805 785 767 772 775 774 773 771 772 769 767 768 768 770 769
827 826 825 825 824 823 823 822 821 821 820 819 818 817 816 815 813 813 812 812 811 811 811 811 812 812 812 813 809 802 797 798 799 799 800 799 800 800 801 802 802 803 804 805 806 806 808 809 809 812 815 817 821 823 820 818 820 820 821 818 814 815 808 803 803 805 808 805 802 807 809 802 797 790 771 764 773 774 774 772 767 767 766 766 766 766 766 764
826 825 825 824 824 823 822 822 821 820 819 818 817 815 814 813 812 811 810 810 809 810 809 810 810 810 812 810 800 795 796 797 797 798 798 798 799 799 800 801 802 804 804 804 805 805 808 808 809 812 814 816 819 820 817 819 822 819 822 822 818 819 809 797 800 804 805 803 800 803 806 796 785 776 764 766 772 772 773 770 765 763 763 765 763 763 762 759
826 825 824 824 823 823 822 821 820 819 818 817 815 814 813 811 810 808 808 808 807 808 808 809 809 810 812 804 794 793 795 794 795 796 796 797 798 799 800 801 802 803 804 804 805 805 807 808 810 813 815 816 817 817 818 822 823 821 823 824 825 826 808 794 801 807 801 800 800 800 805 795 778 769 763 767 771 770 770 766 763 762 761 762 761 759 757 753
825 824 824 823 823 822 821 821 819 818 817 816 814 812 810 809 807 806 806 805 805 807 807 808 809 809 811 802 792 793 793 792 793 793 794 795 796 798 799 800 801 802 803 804 805 805 806 808 811 813 815 816 816 818 822 823 823 824 825 823 827 827 810 797 798 800 795 797 802 801 800 794 780 768 763 769 772 770 769 764 761 760 759 759 757 756 754 749
824 824 823 823 822 821 821 820 818 817 816 814 812 810 808 807 806 805 805 804 805 806 807 809 808 809 811 801 792 792 791 791 792 792 792 793 795 797 798 800 801 802 803 804 805 805 807 809 813 816 816 816 818 821 825 828 826 826 827 822 820 820 817 808 794 790 793 796 800 798 792 786 777 766 763 769 771 771 770 765 761 759 757 755 753 751 750 747
824 824 823 823 822 821 820 819 818 816 814 813 810 808 807 806 805 804 804 804 805 806 807 808 808 810 806 797 793 792 790 790 790 790 791 792 794 795 797 800 801 802 803 805 806 806 808 810 815 817 817 819 821 822 829 835 828 823 826 824 820 818 818 815 797 787 793 795 795 796 793 784 774 767 766 766 767 770 768 762 759 756 752 749 747 747 745 745
823 823 823 823 822 821 820 819 817 815 814 812 809 807 806 806 805 805 804 805 806 806 808 808 809 813 804 793 792 791 789 790 789 790 791 792 794 795 796 798 801 802 804 806 807 808 810 814 817 818 818 821 821 823 828 826 815 812 815 816 818 818 818 818 805 790 789 791 792 797 794 785 778 773 770 765 765 767 761 756 755 751 747 744 743 742 739 739
823 822 822 822 821 821 820 818 817 815 813 811 808 806 805 806 805 805 806 806 807 806 807 807 807 809 802 792 791 790 789 790 789 790 791 792 794 795 796 798 800 802 805 809 809 809 811 815 820 820 818 816 814 817 815 806 802 807 810 811 812 813 813 812 803 792 792 793 793 795 786 778 778 774 769 763 763 764 757 752 749 745 743 742 739 736 733 732
822 822 822 821 821 820 819 818 817 815 813 810 808 805 806 809 808 807 807 806 806 804 803 803 801 800 796 791 789 789 790 790 789 790 791 792 793 795 798 799 802 804 806 807 809 811 812 815 819 815 809 806 805 807 806 802 806 811 813 814 813 814 809 803 797 792 796 796 789 785 777 770 772 771 767 761 760 762 757 749 744 739 739 739 735 729 726 727
821 821 821 821 820 820 819 818 817 815 813 811 808 807 812 816 813 812 811 806 801 800 800 798 797 796 791 788 788 788 789 789 789 790 790 791 792 795 797 800 804 806 808 809 810 813 814 816 815 805 799 801 802 804 806 808 810 811 813 814 815 816 807 797 796 791 795 798 788 784 778 769 770 769 765 761 758 755 749 747 742 736 737 734 729 724 721 725
821 820 820 821 820 820 819 818 817 815 814 812 810 811 815 816 815 815 815 810 801 797 797 793 793 793 787 785 787 788 790 790 789 790 791 792 792 794 796 801 804 806 810 812 811 814 817 817 810 801 801 805 806 807 809 810 811 811 815 817 816 815 804 796 796 794 798 799 787 785 780 767 766 765 758 753 749 745 743 745 741 735 736 731 722 721 722 725
820 820 820 820 819 820 819 818 817 816 815 813 812 814 815 815 815 815 816 815 804 794 791 789 790 790 786 785 786 788 792 791 789 790 791 791 794 796 796 800 805 807 810 809 806 810 814 810 803 800 805 808 808 811 811 810 812 812 814 817 813 810 806 799 796 796 800 798 790 791 781 761 756 753 747 745 743 744 743 741 739 735 732 725 720 722 726 727
819 819 819 819 819 819 818 818 817 816 816 814 814 814 814 814 814 815 815 812 804 794 787 786 788 788 786 785 784 787 791 791 789 789 789 790 794 797 796 799 805 808 807 805 803 802 801 800 799 802 807 809 809 812 812 811 810 809 812 815 808 804 805 801 798 798 799 796 795 794 771 746 744 744 741 744 746 745 742 739 738 731 723 720 722 725 729 733
818 818 818 818 819 818 818 818 816 817 816 815 815 814 814 814 813 815 815 810 804 794 785 785 787 786 784 784 784 786 788 789 788 788 788 789 791 794 797 799 801 802 803 805 807 804 799 798 799 801 805 809 811 812 812 810 807 805 808 808 801 799 802 801 802 806 804 796 798 798 773 746 743 744 739 740 742 738 738 738 727 718 719 723 724 726 732 737
816 817 817 818 818 818 818 817 817 817 815 815 815 814 814 814 813 814 814 814 805 789 783 785 786 785 784 785 786 786 787 788 789 789 789 789 789 790 795 799 799 799 801 804 807 805 800 798 798 799 803 809 813 813 809 808 809 808 803 798 797 800 803 803 805 809 805 797 799 802 790 768 749 741 738 737 736 732 731 728 716 715 724 725 724 729 736 738
815 815 815 816 816 818 818 817 817 817 816 816 814 814 814 812 814 813 813 818 805 784 782 786 785 784 784 786 787 786 789 790 790 791 790 791 790 789 793 797 799 799 801 803 803 799 796 797 800 801 803 807 811 807 801 806 811 806 801 797 795 799 801 804 807 809 806 803 803 800 798 791 764 745 745 741 736 734 726 719 719 725 728 723 725 734 739 738
813 813 814 815 815 816 817 817 817 816 817 816 814 815 813 812 814 811 817 825 803 778 781 785 783 784 783 786 788 788 793 792 790 792 792 792 791 791 793 796 797 797 798 800 797 794 793 794 797 799 803 806 803 796 795 803 803 799 804 804 800 802 803 805 805 807 812 808 804 800 798 795 769 745 750 750 739 731 724 722 725 727 725 718 723 736 741 739
811 811 812 813 814 815 815 816 817 816 816 815 815 815 813 813 812 811 827 829 796 776 784 784 782 786 785 787 788 789 792 791 791 792 791 792 791 792 795 796 796 795 796 797 793 792 794 794 795 795 796 796 791 791 794 794 794 799 808 807 806 809 808 811 807 805 812 805 798 799 794 787 761 735 744 751 740 729 725 728 727 724 724 717 721 737 741 736
809 810 811 811 812 813 814 815 815 815 815 815 815 815 813 812 813 822 835 823 793 785 787 783 785 790 788 787 789 790 790 790 793 793 792 794 792 793 796 798 798 796 798 799 795 793 795 799 800 792 787 785 786 798 803 798 798 803 804 800 802 807 808 813 811 806 808 797 788 787 784 784 766 740 740 742 736 730 725 725 721 719 723 718 724 740 740 734
808 809 809 810 811 812 813 813 813 814 814 814 815 814 813 813 818 830 828 807 794 791 786 786 792 792 790 790 790 789 790 791 794 793 793 796 795 795 797 797 797 799 800 798 796 795 797 799 796 786 784 787 787 797 807 807 805 802 800 797 798 803 805 810 811 810 808 792 781 782 782 784 767 744 739 736 733 734 729 726 719 716 719 716 729 744 740 736
807 808 808 809 810 810 811 812 812 813 813 814 815 813 815 820 822 823 813 798 796 791 785 790 794 791 793 794 791 791 792 790 792 794 795 799 800 798 798 796 795 798 799 797 794 791 790 791 789 784 785 787 784 790 802 806 805 803 801 803 806 808 807 807 808 811 806 789 785 791 790 782 759 739 738 733 728 730 730 728 721 718 719 717 731 745 740 740
806 806 808 809 809 809 810 810 811 813 813 814 816 815 820 826 819 811 806 800 796 790 787 791 793 793 795 792 790 793 794 790 791 794 794 799 802 797 796 798 798 798 797 799 797 789 784 786 789 785 782 783 782 786 791 792 800 804 798 801 809 811 810 807 806 808 801 787 790 799 792 777 755 736 731 725 718 721 726 728 726 725 725 723 734 744 741 742
804 805 806 807 808 809 809 810 811 812 813 814 816 819 824 821 809 804 804 798 792 788 788 791 792 794 794 792 789 789 791 789 789 794 794 797 800 795 792 794 798 797 795 799 799 794 792 786 783 780 776 778 779 777 777 781 793 798 790 792 797 796 798 798 793 791 784 779 791 801 787 769 752 733 725 724 721 723 727 729 730 729 728 732 739 743 742 744
803 804 805 805 806 807 808 809 810 812 813 813 817 822 820 811 802 801 800 795 792 790 788 789 790 792 793 792 790 787 787 788 791 795 794 793 792 789 785 785 790 794 796 801 799 798 801 788 776 779 779 779 779 774 775 779 787 792 790 791 790 783 782 784 781 777 779 784 788 790 777 758 744 731 726 729 730 729 730 729 729 730 731 737 742 745 749 749
802 803 803 803 804 805 807 808 810 812 812 813 819 818 809 801 798 797 794 791 791 789 789 790 789 791 792 789 789 790 788 789 793 794 793 794 791 786 782 778 782 788 788 795 795 794 800 789 775 781 783 781 781 777 777 778 779 790 794 787 782 780 776 780 782 779 785 790 776 768 766 752 741 734 727 730 731 728 729 729 731 735 738 742 747 753 758 758
800 801 801 800 801 803 804 806 808 811 811 815 818 811 800 796 793 791 791 790 790 788 791 796 790 788 791 788 788 792 790 790 793 792 792 794 787 782 782 776 778 782 776 781 786 784 792 787 774 775 776 778 786 782 778 780 779 785 789 780 777 781 778 782 790 788 791 791 773 761 760 753 750 744 730 728 731 730 731 732 735 740 744 750 758 762 766 766
799 800 800 798 799 801 802 804 806 809 811 813 813 805 797 794 790 789 789 789 790 789 792 798 791 785 789 790 788 790 790 791 793 792 791 790 781 774 777 772 773 779 774 776 780 778 785 784 773 773 773 775 786 784 778 781 781 778 779 778 780 783 781 781 789 792 791 788 777 765 758 755 754 745 732 731 735 737 737 738 744 752 757 764 768 769 771 772
798 800 799 795 796 797 800 803 804 808 810 807 805 799 792 789 787 787 787 787 788 790 792 794 790 787 788 788 789 789 790 791 791 791 788 786 779 770 770 769 770 778 778 776 778 776 780 782 773 773 777 775 778 780 777 777 780 781 781 780 781 783 783 783 788 791 788 783 777 768 762 755 743 734 734 736 740 744 744 749 762 770 773 776 776 774 775 774
798 800 798 794 794 796 798 802 804 805 803 797 795 792 788 787 786 785 787 787 786 789 791 790 789 790 787 785 788 789 790 790 789 789 786 782 778 770 767 768 768 775 780 778 778 777 778 781 775 772 777 777 773 773 771 767 771 779 780 780 782 783 786 789 788 787 785 783 780 775 767 753 735 729 734 739 749 755 754 762 778 783 781 781 780 779 778 776
798 800 797 793 794 795 797 801 800 799 796 792 790 789 787 787 786 785 787 788 787 786 788 789 789 789 789 788 788 788 789 789 787 788 785 781 779 774 770 769 767 771 778 777 777 778 777 779 778 773 774 773 767 765 765 763 763 768 771 773 776 780 786 788 782 781 786 783 775 771 766 750 732 728 736 749 766 773 771 775 783 785 785 784 782 782 780 777
799 799 795 793 794 794 796 797 795 794 794 790 788 788 788 787 786 786 786 788 789 788 787 789 789 789 789 789 788 788 789 789 787 786 785 780 777 775 775 776 773 770 774 776 776 778 781 782 782 778 772 768 764 765 768 767 764 767 768 767 769 772 779 781 774 773 779 776 770 770 767 751 733 733 749 766 775 779 781 781 782 784 786 785 784 783 781 778
799 797 793 792 793 793 794 794 792 792 791 787 786 787 788 788 788 787 787 788 790 790 789 789 788 788 788 786 786 787 787 788 785 781 782 779 778 783 787 784 780 776 776 779 778 778 782 782 781 779 772 766 764 767 773 774 771 772 770 766 768 768 768 772 771 771 771 767 766 768 762 749 738 745 767 778 777 777 780 781 781 782 782 783 783 782 780 778
800 799 795 792 792 792 792 790 788 790 790 788 789 789 788 788 788 787 788 788 788 790 792 790 787 787 788 787 788 790 790 790 786 780 782 781 782 790 793 787 785 786 787 789 787 785 785 780 779 781 777 772 769 766 771 776 774 775 772 768 769 769 767 770 773 776 774 764 761 763 757 747 742 749 766 777 778 780 781 781 783 782 781 781 781 780 779 777
800 799 796 794 791 792 792 790 789 790 790 790 792 791 790 789 785 784 787 787 785 788 790 789 787 786 788 790 791 793 792 793 791 787 786 785 784 789 791 789 788 789 792 795 793 791 790 783 779 782 780 778 773 767 771 779 780 778 776 774 774 775 775 776 774 774 770 758 756 760 754 744 739 743 756 767 773 780 783 783 784 783 783 782 780 779 777 775
798 794 794 794 792 793 794 793 793 792 791 791 791 788 788 788 783 782 785 785 785 785 786 787 788 789 791 791 792 792 790 791 793 789 784 784 784 787 792 793 792 792 793 793 791 790 792 790 783 782 780 777 774 773 779 788 788 783 779 780 781 781 781 782 779 773 765 759 758 754 750 748 744 746 756 765 770 778 783 784 784 783 783 782 780 780 778 776
798 793 793 795 794 794 794 794 796 795 793 794 791 785 785 787 785 784 784 786 787 787 786 787 789 790 789 789 790 790 787 787 791 789 786 786 786 789 794 795 795 796 793 792 792 790 792 792 783 780 781 780 782 785 787 790 790 787 786 785 784 783 782 783 781 773 768 770 763 750 753 761 756 752 764 774 778 782 784 785 786 784 782 782 780 779 778 777
798 796 797 797 796 796 795 796 799 798 796 797 796 790 788 789 789 788 787 788 788 787 789 790 789 789 790 790 792 792 790 790 790 789 789 791 791 790 791 793 798 799 795 794 794 791 794 793 783 781 785 784 787 789 786 787 788 787 788 787 784 783 780 780 779 773 773 776 766 756 760 761 754 758 774 783 784 785 785 784 785 784 783 782 780 778 777 776
800 801 801 800 801 802 801 801 802 802 799 798 798 794 791 792 791 789 789 791 791 789 790 791 792 796 798 797 796 795 795 795 792 791 792 795 796 795 792 792 797 799 798 797 794 793 796 794 787 790 794 790 789 788 785 788 789 786 786 785 783 781 776 775 774 770 770 768 761 760 759 753 757 772 782 784 783 783 783 782 782 783 783 781 780 778 776 775
801 803 803 804 805 806 806 805 804 805 802 800 798 794 792 793 792 791 792 794 795 792 791 794 800 806 806 803 802 800 800 802 800 799 802 802 800 802 802 797 797 801 801 799 797 795 796 795 789 792 798 795 788 786 785 787 788 788 787 784 780 778 775 774 771 765 765 762 757 758 755 754 770 785 784 782 783 782 781 780 779 780 780 779 777 776 774 773
802 802 803 806 805 805 808 808 806 806 804 802 799 795 793 794 796 798 797 797 798 797 797 803 808 809 808 806 806 806 807 810 809 807 810 810 804 806 808 804 803 806 803 799 799 796 798 799 794 796 804 798 787 786 788 788 790 792 789 782 776 774 771 768 763 760 760 759 758 758 756 761 777 787 783 782 783 781 779 778 776 776 776 776 775 772 771 770
802 803 803 805 805 806 808 809 808 806 804 802 802 800 800 802 802 802 800 801 804 804 805 808 808 808 809 807 805 807 809 810 810 808 809 809 806 807 807 805 806 807 804 801 801 798 799 802 801 803 805 796 788 791 793 796 800 791 777 769 765 763 764 762 758 758 759 761 762 761 764 773 783 785 782 781 780 778 777 774 772 772 772 773 772 770 767 766